Regional Weather Roundup
Issued by NWS

Home | Current Version | Previous Version | Graphics & Text | Print | Product List | Glossary On
Versions: 1 2 3 4 5 6 7 8 9 10 11 12 13 14 15 16 17 18 19 20 21 22 23 24 25 26 27 28 29 30 31 32 33 34 35 36 37 38 39 40 41 42 43 44 45 46 47 48 49 50
000
ASUS45 KBOU 210507
RWRCO

WEATHER ROUNDUP FOR COLORADO
NATIONAL WEATHER SERVICE DENVER/BOULDER CO
1100 PM MDT MON APR 20 2015

NOTE: "FAIR" INDICATES FEW OR NO CLOUDS BELOW 12000 FEET WITH NO
SIGNIFICANT WEATHER AND/OR OBSTRUCTIONS TO VISIBILITY.

COZ001>005-013-030-031-210600-
...NORTHWEST COLORADO...

CITY           SKY/WX    TMP DP  RH WIND       PRES   REMARKS
CRAIG          MOCLDY    39  33  79 E8        29.96S
HAYDEN         MOCLDY    39  28  65 E10       29.98R
MEEKER         PTCLDY    41  32  70 NE10      29.97S
MOUNT WERNER   NOT AVBL
STEAMBOAT SPGS PTCLDY    35  29  78 CALM      29.99R
WALDEN         PTCLDY    30  25  80 E6        30.01S WCI  24
$$

COZ006>008-011-210600-
...WEST CENTRAL VALLEYS...

CITY           SKY/WX    TMP DP  RH WIND       PRES   REMARKS
GRAND JUNCTION CLEAR     50  38  63 E3        29.90R
MONTROSE       CLEAR     46  35  65 SE13      29.97S
EAGLE          PTCLDY    37  36  93 CALM      30.05F
RIFLE          PTCLDY    47  32  56 E9        29.97R
DELTA          CLEAR     51  33  49 NE9       29.95R
NUCLA          CLEAR     46  32  57 E10       30.00S
$$

COZ017>023-064>068-210600-
...SOUTHWEST COLORADO...

CITY           SKY/WX    TMP DP  RH WIND       PRES   REMARKS
DURANGO        CLEAR     39  21  48 CALM      29.99R
CORTEZ         CLEAR     38  26  62 E6        29.96S
PAGOSA SPRINGS CLEAR     36  20  52 CALM      30.04R
TELLURIDE      CLEAR     37  22  53 SE6       30.10S
WOLF CREEK PAS CLEAR     27  12  54 CALM      30.20R
$$

COZ009-010-012-014-032>034-037-058>063-210600-
...CENTRAL COLORADO...

CITY           SKY/WX    TMP DP  RH WIND       PRES   REMARKS
ASPEN          PTCLDY    34  29  82 S3        30.04F
BUENA VISTA    CLEAR     32  30  93 NW3       30.07F
COPPER MTN     NOT AVBL
BERTHOUD PASS  FAIR      18  10  73 NW31G43   30.08S HAZE    WCI  -2
COTTONWOOD PAS PTCLDY    34  25  69 W7        30.09F WCI  28
GUNNISON       CLEAR     36  25  64 CALM      30.08R
KREMMLING      CLEAR     32  28  86 SE7       30.04S WCI  26
LEADVILLE      MOCLDY    23  21  92 E6        30.09S WCI  16
MONARCH PASS   CLEAR     23  16  74 MISG      30.24R
SALIDA         PTCLDY    39  32  75 NW5       30.14R
SUNLIGHT       MOCLDY    32  27  80 CALM      30.15S
WILKERSON PASS CLOUDY    23  21  93 W7        30.14S FOG     WCI  15
$$

COZ069>075-210600-
...SAN LUIS VALLEY/SANGRE DE CRISTO MOUNTAINS...

CITY           SKY/WX    TMP DP  RH WIND       PRES   REMARKS
ALAMOSA        PTCLDY    40  25  55 N6        30.03R
LA VETA PASS   LGT SNOW  30  27  86 W9G21     30.12R WCI  22
SAGUACHE       CLEAR     36  28  75 NW12      30.05S
$$

COZ035-036-038>040-210600-
...NORTHERN COLORADO FRONT RANGE...

CITY           SKY/WX    TMP DP  RH WIND       PRES   REMARKS
DENVER INTL AP PTCLDY    38  34  85 S12       29.96S
DMNS CITY PARK   N/A     42  35  75 S3        29.96S
AURORA         PTCLDY    38  35  89 S8        29.96F
FRONT RANGE AP NOT AVBL
ERIE MUNI ARPT CLEAR     41  37  85 CALM      29.95F
BOULDER MUN AP CLEAR     39  34  81 N5        29.95S
CENTENNIAL     PTCLDY    40  34  79 S9        29.96F
BROOMFIELD     NOT AVBL
FORT COLLINS   PTCLDY    45  34  65 CALM      29.97S
LONGMONT       PTCLDY    41  35  78 CALM      29.98R
$$

COZ041-046-047-076>085-087-088-210600-
...PIKES PEAK/PALMER DIVIDE AND SOUTHERN FOOTHILLS...

CITY           SKY/WX    TMP DP  RH WIND       PRES   REMARKS
COLO. SPRINGS  PTCLDY    42  34  73 NW3       30.01F
A. F. ACADEMY  PTCLDY    36  33  87 CALM      30.00F
ELLICOTT       PTCLDY   N/A N/A N/A E9        30.00S
FALCON         PTCLDY    34  32  92 CALM      30.02F
FORT CARSON    PTCLDY    41  36  80 W5        29.99F
LIMON          CLEAR     36  30  79 CALM      29.98S
MONUMENT HILL  CLEAR     32  30  93 S9        29.99F WCI  24
TRINIDAD       PTCLDY    42  34  73 W7        30.01R
$$

COZ042>045-048>051-090-091-210600-
...NORTHEAST COLORADO...

CITY           SKY/WX    TMP DP  RH WIND       PRES   REMARKS
GREELEY ARPT   PTCLDY    43  28  56 N6        29.96S
AKRON          CLEAR     38  26  62 SW9       29.93S
BURLINGTON     CLOUDY    41  32  70 W6        29.95F
WRAY           CLEAR     39  30  70 W6        29.91F
STERLING       CLEAR     36  32  87 CALM      29.92R
HOLYOKE        CLEAR     37  32  81 W6        29.91S
FORT MORGAN    CLEAR     42  26  53 W5        29.94F
$$

COZ086-089-092>099-210600-
...SOUTHEAST COLORADO...

CITY           SKY/WX    TMP DP  RH WIND       PRES   REMARKS
PUEBLO         PTCLDY    47  39  74 CALM      29.98F
LA JUNTA       CLOUDY    50  37  61 N3        29.97R
LAMAR          CLOUDY    50  40  68 CALM      29.94R
SPRINGFIELD      N/A     42  38  85 SW3       29.96S
$$



USA.gov is the U.S. government's official web portal to all federal, state and local government web resources and services.